478  
ASUS41 KBGM 130710  
RWRBGM  
 
REGIONAL WEATHER ROUNDUP  
NATIONAL WEATHER SERVICE BINGHAMTON NY  
300 AM EDT TUE APR 13 2021  
 
NOTE: "FAIR" INDICATES FEW OR NO CLOUDS BELOW 12,000 FEET WITH NO  
SIGNIFICANT WEATHER AND/OR S TO VISIBILITY
.  
 
* = STATION(S) THAT DOES NOT REPORT PRECIPITATION, SUCH AS RAIN,  
SNOW, ETC, ALSO NO THUNDER OR FOG.
 
 
NYZ009-015>018-022>025-036-037-044>046-055>057-062-130800   
..CENTRAL NEW YORK
 
 
 
CITY SKY/WX TMP DP RH WIND PRES REMARKS
 
BINGHAMTON CLOUDY 40 38 93 SE7 29.96S  
CORTLAND CLOUDY 43 41 93 CALM 29.98S  
DANSVILLE CLOUDY 50 45 83 S5 29.95R  
ELMIRA CLOUDY 46 43 89 CALM 29.97R  
ENDICOTT DRIZZLE 43 43 100 SE5 29.99R  
ITHACA CLOUDY 44 43 96 E3 29.98R  
HAMILTON CLEAR 37 37 100 SE3 29.99R  
MONTICELLO MOCLDY 38 37 97 NW3 29.96S  
NORWICH MOCLDY 39 39 100 CALM 30.00R  
ONEONTA CLEAR 37 37 100 CALM 29.97S  
PENN YAN CLOUDY 46 41 82 CALM 29.97R  
ROME FOG 43 41 93 CALM 30.00S VSB 3/4  
SENECA FALLS CLOUDY 45 43 93 S3 29.99S  
SIDNEY CLOUDY 41 39 93 CALM 29.99R  
SKANEATELES CLOUDY 45 45 100 SE5 29.97S  
SYRACUSE CLOUDY 48 45 89 CALM 29.99R  

 
 
PAZ038>040-043-044-047-048-072-130800   
..NORTHEAST PENNSYLVANIA
 
 
 
CITY SKY/WX TMP DP RH WIND PRES REMARKS
 
HAZLETON CLOUDY 43 41 93 CALM 29.97S  
SCRANTON CLOUDY 45 39 79 E6 29.97R  
TOWANDA CLOUDY 46 46 100 CALM 30.00S  

 

 
KEY  
WCI = WIND CHILL INDEX  
VSB = VISIBILITY  
HX = HEAT INDEX  

 
 
 
CLICK HERE TO GO TO PREVIOUS BULLETINS.

The Nexlab NY Page
The Nexlab PA Page Main Text Page